When you browse on this site, cookies collect data to enhance your experience and personalize the content and advertising you see.
Visit our Privacy Policy to learn more. By continuing to use the site, you agree to this use of cookies and data.
  • Em Portugal
  • Lista de países
  • Para 7 dias
  • Temperatura da água
  • Mapas de satélite
  • Mapa do tempo
  • Widgets de tempo
  • user-avatar
    Iniciar Sessão

    Previsão horária em Rozlazino

    Hoje, 18 Janeiro, Sexta-feira

    Tempo Temperatura Precipitação Vento Pressão Humidade
    00:00 0°C° 0.2 mm 5 m/s 743 mmHg 84%
    01:00 0°C° 0 mm 5 m/s 743 mmHg 85%
    02:00 0°C° 0.4 mm 5 m/s 744 mmHg 85%
    03:00 -2°C° 0.4 mm 6 m/s 745 mmHg 85%
    04:00 -2°C° 0.4 mm 6 m/s 746 mmHg 85%
    05:00 -2°C° 0.1 mm 6 m/s 747 mmHg 82%
    06:00 -3°C° 0.1 mm 6 m/s 748 mmHg 79%
    07:00 -4°C° 0 mm 5 m/s 749 mmHg 76%
    08:00 -4°C° 0 mm 5 m/s 750 mmHg 74%
    09:00 -2°C° 0 mm 5 m/s 751 mmHg 73%
    10:00 -2°C° 0 mm 5 m/s 752 mmHg 71%
    11:00 -2°C° 0 mm 5 m/s 752 mmHg 70%
    12:00 -1°C° 0 mm 5 m/s 753 mmHg 68%
    13:00 -1°C° 0 mm 6 m/s 753 mmHg 66%
    14:00 -1°C° 0.2 mm 5 m/s 754 mmHg 70%
    15:00 -1°C° 0.2 mm 5 m/s 754 mmHg 74%
    16:00 -2°C° 0.2 mm 4 m/s 754 mmHg 78%
    17:00 -2°C° 0 mm 4 m/s 754 mmHg 79%
    18:00 -3°C° 0 mm 4 m/s 755 mmHg 81%
    19:00 -3°C° 0 mm 4 m/s 755 mmHg 83%
    20:00 -3°C° 0 mm 4 m/s 755 mmHg 85%
    21:00 -3°C° 0 mm 4 m/s 755 mmHg 86%
    22:00 -3°C° 0 mm 4 m/s 756 mmHg 88%
    23:00 -2°C° 0 mm 3 m/s 756 mmHg 87%

    Amanhã, 19 Janeiro, Sábado

    Tempo Temperatura Precipitação Vento Pressão Humidade
    00:00 -2°C° 0 mm 3 m/s 756 mmHg 87%
    01:00 -2°C° 0 mm 3 m/s 756 mmHg 86%
    02:00 -2°C° 0 mm 3 m/s 757 mmHg 84%
    03:00 -2°C° 0 mm 3 m/s 757 mmHg 83%
    04:00 -2°C° 0 mm 3 m/s 757 mmHg 82%
    05:00 -2°C° 0 mm 3 m/s 757 mmHg 84%
    06:00 -2°C° 0 mm 3 m/s 757 mmHg 85%
    07:00 -2°C° 0 mm 3 m/s 757 mmHg 87%
    08:00 -2°C° 0 mm 3 m/s 757 mmHg 87%
    09:00 -1°C° 0 mm 3 m/s 758 mmHg 86%
    10:00 -1°C° 0 mm 3 m/s 758 mmHg 86%
    11:00 0°C° 0 mm 3 m/s 758 mmHg 83%
    12:00 0°C° 0 mm 3 m/s 758 mmHg 81%
    13:00 +1°C° 0 mm 3 m/s 758 mmHg 78%
    14:00 0°C° 0 mm 3 m/s 758 mmHg 81%
    15:00 -1°C° 0 mm 2 m/s 758 mmHg 83%
    16:00 -1°C° 0 mm 2 m/s 758 mmHg 86%
    17:00 -2°C° 0 mm 2 m/s 758 mmHg 87%
    18:00 -2°C° 0 mm 2 m/s 758 mmHg 88%
    19:00 -2°C° 0 mm 2 m/s 758 mmHg 89%
    20:00 -2°C° 0 mm 2 m/s 758 mmHg 89%
    21:00 -2°C° 0 mm 2 m/s 757 mmHg 89%
    22:00 -3°C° 0 mm 2 m/s 757 mmHg 88%
    23:00 -3°C° 0 mm 2 m/s 757 mmHg 88%

    Depois de amanhã, 20 Janeiro, Domingo

    Tempo Temperatura Precipitação Vento Pressão Humidade
    00:00 -3°C° 0 mm 2 m/s 757 mmHg 88%
    01:00 -3°C° 0 mm 2 m/s 757 mmHg 87%
    02:00 -3°C° 0 mm 2 m/s 757 mmHg 88%
    03:00 -3°C° 0 mm 2 m/s 757 mmHg 88%
    04:00 -3°C° 0 mm 2 m/s 757 mmHg 88%
    05:00 -3°C° 0 mm 2 m/s 757 mmHg 89%
    06:00 -3°C° 0 mm 2 m/s 757 mmHg 89%
    07:00 -3°C° 0 mm 2 m/s 757 mmHg 89%
    08:00 -3°C° 0 mm 2 m/s 757 mmHg 88%
    09:00 -3°C° 0 mm 2 m/s 757 mmHg 86%
    10:00 -2°C° 0 mm 2 m/s 757 mmHg 85%
    11:00 -1°C° 0 mm 2 m/s 757 mmHg 83%
    12:00 -1°C° 0 mm 2 m/s 757 mmHg 82%
    13:00 +1°C° 0 mm 2 m/s 757 mmHg 81%
    14:00 +1°C° 0 mm 2 m/s 757 mmHg 84%
    15:00 -1°C° 0 mm 2 m/s 757 mmHg 87%
    16:00 -1°C° 0 mm 2 m/s 757 mmHg 90%
    17:00 -1°C° 0 mm 2 m/s 757 mmHg 91%
    18:00 -2°C° 0 mm 2 m/s 758 mmHg 91%
    19:00 -2°C° 0 mm 2 m/s 758 mmHg 92%
    20:00 -2°C° 0 mm 2 m/s 758 mmHg 91%
    21:00 -2°C° 0 mm 2 m/s 759 mmHg 91%
    22:00 -2°C° 0 mm 2 m/s 759 mmHg 91%
    23:00 -2°C° 0 mm 2 m/s 759 mmHg 91%

    21 Janeiro, Segunda-feira

    Tempo Temperatura Precipitação Vento Pressão Humidade
    00:00 -2°C° 0 mm 2 m/s 759 mmHg 91%
    01:00 -2°C° 0 mm 2 m/s 760 mmHg 91%
    02:00 -2°C° 0 mm 2 m/s 760 mmHg 92%
    03:00 -2°C° 0 mm 2 m/s 760 mmHg 93%
    04:00 -2°C° 0 mm 2 m/s 760 mmHg 93%
    05:00 -2°C° 0.1 mm 3 m/s 760 mmHg 92%
    06:00 -2°C° 0.1 mm 3 m/s 760 mmHg 91%
    07:00 -2°C° 0.1 mm 3 m/s 760 mmHg 89%
    08:00 -2°C° 0 mm 3 m/s 760 mmHg 88%
    09:00 -2°C° 0 mm 3 m/s 760 mmHg 86%
    10:00 -2°C° 0 mm 3 m/s 760 mmHg 84%
    11:00 -2°C° 0 mm 4 m/s 760 mmHg 80%
    12:00 -2°C° 0 mm 4 m/s 760 mmHg 76%
    13:00 -2°C° 0 mm 4 m/s 759 mmHg 72%
    14:00 -2°C° 0 mm 4 m/s 759 mmHg 72%
    15:00 -2°C° 0 mm 4 m/s 759 mmHg 72%
    16:00 -2°C° 0 mm 4 m/s 758 mmHg 72%
    17:00 -4°C° 0 mm 5 m/s 758 mmHg 71%
    18:00 -4°C° 0 mm 5 m/s 758 mmHg 69%
    19:00 -4°C° 0 mm 5 m/s 757 mmHg 68%
    20:00 -4°C° 0 mm 5 m/s 757 mmHg 69%
    21:00 -4°C° 0 mm 5 m/s 757 mmHg 71%
    22:00 -4°C° 0 mm 5 m/s 756 mmHg 72%
    23:00 -3°C° 0 mm 4 m/s 756 mmHg 74%

    22 Janeiro, Terça-feira

    Tempo Temperatura Precipitação Vento Pressão Humidade
    00:00 -4°C° 0 mm 4 m/s 756 mmHg 76%
    01:00 -4°C° 0 mm 4 m/s 755 mmHg 77%
    02:00 -4°C° 0 mm 4 m/s 755 mmHg 78%
    03:00 -4°C° 0 mm 4 m/s 754 mmHg 79%
    04:00 -4°C° 0 mm 4 m/s 754 mmHg 80%
    05:00 -4°C° 0 mm 4 m/s 753 mmHg 75%
    06:00 -4°C° 0 mm 4 m/s 752 mmHg 71%
    07:00 -4°C° 0 mm 4 m/s 752 mmHg 67%
    08:00 -4°C° 0 mm 5 m/s 751 mmHg 65%
    09:00 -4°C° 0 mm 5 m/s 751 mmHg 64%
    10:00 -4°C° 0 mm 5 m/s 750 mmHg 62%
    11:00 -4°C° 0 mm 6 m/s 749 mmHg 61%
    12:00 -3°C° 0 mm 6 m/s 748 mmHg 59%
    13:00 -3°C° 0 mm 6 m/s 748 mmHg 57%
    14:00 -3°C° 0 mm 6 m/s 747 mmHg 58%
    15:00 -3°C° 0 mm 6 m/s 746 mmHg 59%
    16:00 -3°C° 0 mm 6 m/s 745 mmHg 60%
    17:00 -4°C° 0 mm 6 m/s 744 mmHg 59%
    18:00 -4°C° 0 mm 6 m/s 744 mmHg 59%
    19:00 -4°C° 0 mm 6 m/s 743 mmHg 58%
    20:00 -4°C° 0 mm 6 m/s 743 mmHg 58%
    21:00 -4°C° 0 mm 6 m/s 743 mmHg 59%
    22:00 -4°C° 0 mm 6 m/s 742 mmHg 60%
    23:00 -4°C° 0 mm 5 m/s 742 mmHg 62%

    23 Janeiro, Quarta-feira

    Tempo Temperatura Precipitação Vento Pressão Humidade
    00:00 -4°C° 0 mm 5 m/s 742 mmHg 64%
    01:00 -4°C° 0 mm 5 m/s 741 mmHg 66%
    02:00 -4°C° 0 mm 5 m/s 741 mmHg 68%
    03:00 -4°C° 0 mm 5 m/s 741 mmHg 71%
    04:00 -5°C° 0 mm 5 m/s 740 mmHg 73%
    05:00 -4°C° 0 mm 4 m/s 740 mmHg 76%
    06:00 -4°C° 0 mm 4 m/s 740 mmHg 78%
    07:00 -4°C° 0 mm 4 m/s 740 mmHg 80%
    08:00 -4°C° 0 mm 4 m/s 740 mmHg 78%
    09:00 -4°C° 0 mm 4 m/s 740 mmHg 76%
    10:00 -3°C° 0 mm 4 m/s 740 mmHg 75%
    11:00 -2°C° 0 mm 3 m/s 740 mmHg 73%
    12:00 -2°C° 0 mm 3 m/s 739 mmHg 71%
    13:00 -1°C° 0 mm 3 m/s 739 mmHg 69%
    14:00 -2°C° 0 mm 3 m/s 739 mmHg 72%
    15:00 -2°C° 0 mm 3 m/s 739 mmHg 75%
    16:00 -2°C° 0 mm 3 m/s 739 mmHg 78%
    17:00 -2°C° 0.1 mm 3 m/s 739 mmHg 78%
    18:00 -4°C° 0.1 mm 3 m/s 739 mmHg 78%
    19:00 -4°C° 0.1 mm 3 m/s 739 mmHg 78%
    20:00 -4°C° 0 mm 3 m/s 739 mmHg 79%
    21:00 -4°C° 0 mm 3 m/s 739 mmHg 81%
    22:00 -3°C° 0 mm 2 m/s 740 mmHg 82%
    23:00 -3°C° 0.1 mm 2 m/s 739 mmHg 84%
    Mostrar mais